Forecast Directory
U.S. Alerts
El Dorado Weather Logo
U.S. Radar Loop Conditions Map

U.S. Color Satellite North America Color Infrared Animated Satellite Loop

Interactive Wx Map Live U.S. Google Map Radar Thumbnail Image

US Precipitation 1 day, 24 hour precipitation map

US Temperatures US Conditions Map

US Climate Data US Conditions Map


NOAA NWS Hourly Roundups by Site
Regional Weather Roundup for Sacramento, CA
Select Site:  

000
ASUS46 KSTO 011315
RWRCA

NORTHERN AND CENTRAL CA REGIONAL WEATHER ROUNDUP
NATIONAL WEATHER SERVICE SACRAMENTO CA
600 AM PDT WED APR 01 2020

NOTE: FAIR INDICATES FEW OR NO CLOUDS BELOW 12,000 FEET WITH NO
SIGNIFICANT WEATHER AND/OR OBSTRUCTIONS TO VISIBILITY.

CAZ001-003-011400-
NORTHWEST AREA

CITY           SKY/WX    TMP DP  RH WIND       PRES   REMARKS
CRESCENT CITY  FAIR      37  35  92 E6        30.16S WCI  32
UKIAH          FAIR      41  36  82 N3        30.03F
$$

CAZ006-505>513-011400-
BAY AREA

CITY           SKY/WX    TMP DP  RH WIND       PRES   REMARKS
SANTA ROSA     FAIR      41  37  86 CALM      30.01S
SAN RAFAEL     N/A       MM  MM  MM MISG
NAPA           FAIR      42  38  85 CALM      30.00S
CONCORD        FAIR      47  39  74 SW7       30.00S
OAKLAND CITY   N/A       50  MM  MM MISG
OAKLAND        FAIR      50  40  68 CALM      30.01F
SAN FRAN CITY  N/A       49  MM  71 MISG
SAN FRAN ARPT  FAIR      50  41  71 W8        30.01S
LIVERMORE      FAIR      46  41  82 W5        29.99S
HAYWARD        FAIR      48  39  71 N5        30.00S
SAN JOSE ARPT  FAIR      49  40  71 NW10      30.01F
$$
CAZ034-037-514>518-011400-
CENTRAL COAST

CITY           SKY/WX    TMP DP  RH WIND       PRES   REMARKS
WATSONVILLE    CLOUDY    51  49  92 CALM      30.00S
SALINAS        CLOUDY    53  47  79 W10       29.99S
MONTEREY       MOCLDY    55  44  66 W8        30.01S
SAN LUIS OBISP FAIR      55  47  74 N16G28    29.89F
SANTA MARIA    FAIR      53  51  93 NW15      29.88S FOG
$$
CAZ015-016-011400-
NORTHERN SACRAMENTO VALLEY

CITY           SKY/WX    TMP DP  RH WIND       PRES   REMARKS
REDDING        FAIR      38  33  82 MISG      29.99S
RED BLUFF      FAIR      45  27  49 N8        30.00R
OROVILLE       FAIR      47  31  53 NW7       29.97S
$$
CAZ016>018-011400-
SOUTHERN SACRAMENTO VALLEY

CITY           SKY/WX    TMP DP  RH WIND       PRES   REMARKS
AUBURN         CLOUDY    50  48  93 CALM      29.94S
BEALE AFB      CLOUDY    47  42  83 W6        29.95S
LINCOLN        CLOUDY    48  46  93 W3        29.95S
MARYSVILLE     FAIR      41  33  73 NW7       29.97S
SAC INTL ARPT  MOCLDY    45  43  93 N8        29.96S FOG
MATHER AIRPORT CLEAR     41  41 100 SE7       29.94F
DOWNTOWN SAC   N/A       46  MM  MM MISG
SAC EXEC ARPT  FAIR      42  39  89 CALM      29.96S
VACAVILLE      FAIR      39  37  92 CALM      29.98R
TRAVIS AFB     FAIR      42  38  87 S13       29.97S
$$
CAZ019>021-011400-
SAN JOAQUIN VALLEY

CITY           SKY/WX    TMP DP  RH WIND       PRES   REMARKS
STOCKTON       FAIR      47  42  83 NW7       29.96F
MODESTO        FAIR      51  46  83 N9        29.96S
MERCED         FAIR      49  46  90 NW7       29.95S
LEMOORE        FAIR      48  46  93 NW10      29.95S
FRESNO         FAIR      52  47  83 NW7       29.94S
HANFORD        FAIR      52  49  89 NW12      29.94S
PORTERVILLE    FAIR      47  46  97 SE3       29.94S
BAKERSFIELD    CLOUDY    52  47  83 NW6       29.93S
$$
CAZ011-012-071-011400-
NORTHERN MOUNTAINS

CITY           SKY/WX    TMP DP  RH WIND       PRES   REMARKS
YREKA          MOCLDY    31  23  72 N3        30.05S
MOUNT SHASTA   FAIR      30  24  78 VRB3      29.98R
ALTURAS        FAIR      28  22  78 NW9       29.94S WCI  19
$$
CAZ011-012-071-011400-
SIERRA NEVADA MTNS

CITY           SKY/WX    TMP DP  RH WIND       PRES   REMARKS
BLUE CANYON    FOG       37  36  96 S8        29.94F VSB 1/4 WCI  31
TRUCKEE        FAIR      34  23  64 S9        29.90F WCI  26
TAHOE VLY ARPT FAIR      37  23  56 SE8       29.90F WCI  31
MAMMOTH LAKES  FAIR      46   3  17 SW23G30   29.91F
$$


 

View Past Reports for Sacramento, CA.

Products Courtesy of NOAA-NWS
NWS Information Parsing Script by Ken True at Saratoga Weather - Script by SE Lincoln Weather.



Contact Us | Mobile
Never base any life decisions on weather information from this site or anywhere over the Internet.
Site is dedicated to our Lord & Savior Jesus Christ | Random Quotes of Jesus

Go to your secret place during pandemics and pray Psalm 91 & make it personal.
Copyright © 2020 El Dorado Weather, Inc. | Site Designed By:  El Dorado Weather